Hutchinson, KS

5:10 PM CST on January 18, 2017 (GMT -0600)
Hutchinson Municipal

Weather History for KHUT - May, 2013

Change the Weather History Date:

Wednesday, May 8, 2013

  Actual Average Record
Temperature  
Mean Temperature 67 °F -  
Max Temperature 78 °F 75 °F 97 °F (2011)
Min Temperature 57 °F 48 °F 37 °F (1999)
Cooling Degree Days 2    
Growing Degree Days 17 (Base 50)    
Moisture  
Dew Point 55 °F    
Average Humidity 72    
Maximum Humidity 90    
Minimum Humidity 54    
Precipitation  
Precipitation 0.44 in - - ()
Sea Level Pressure  
Sea Level Pressure 29.87 in    
Wind  
Wind Speed 10 mph (SE)    
Max Wind Speed 30 mph    
Max Gust Speed 40 mph    
Visibility 10 miles    
Events Rain , Thunderstorm    
Averages and records for this station are not official NWS values.
T = Trace of Precipitation, MM = Missing Value Source: NWS Daily Summary

Daily Weather History Graph

Daily Weather History Graph

Search for Another Location

Airport or City:

Trip Planner

Search our weather history database for the weather conditions in past years. The results will help you decide how hot, cold, wet, or windy it might be!

Date:

Astronomy

May. 08, 2013 Rise Set
Actual Time 6:27 AM CDT 8:29 PM CDT
Civil Twilight 5:58 AM CDT 8:58 PM CDT
Nautical Twilight 5:22 AM CDT 9:33 PM CDT
Astronomical Twilight 4:44 AM CDT 10:12 PM CDT
Moon 5:34 AM CDT (5/8) 7:29 PM CDT (5/8)
Length of Visible Light 14h 59m
Length of Day
14h 01m
Waning Crescent, 2% of the Moon is Illuminated
May 8
Waning Crescent
May 9
New
May 17
First Quarter
May 24
Full
May 31
Last Quarter

Hourly Weather History & Observations

Time (CDT) Temp. Dew Point Humidity Pressure Visibility Wind Dir Wind Speed Gust Speed Precip Events Conditions
12:47 AM 60.8 °F 51.8 °F 72% 29.97 in 8.0 mi Variable 3.5 mph 26.5 mph 0.06 in Rain , Thunderstorm Light Thunderstorms and Rain
12:52 AM 60.1 °F 52.0 °F 75% 29.92 in 10.0 mi Calm Calm - 0.06 in Rain , Thunderstorm Light Thunderstorms and Rain
12:59 AM 60.8 °F 51.8 °F 72% 29.96 in 10.0 mi ESE 11.5 mph - 0.00 in Thunderstorm Overcast
1:52 AM 61.0 °F 52.0 °F 72% 29.96 in 10.0 mi NE 10.4 mph 23.0 mph 0.00 in Thunderstorm Thunderstorm
2:52 AM 57.9 °F 55.0 °F 90% 30.00 in 4.0 mi NNW 8.1 mph - 0.37 in Rain , Thunderstorm Heavy Thunderstorms and Rain
4:00 AM 57.2 °F 53.6 °F 88% 29.91 in 10.0 mi ESE 17.3 mph 29.9 mph N/A Thunderstorm Mostly Cloudy
4:24 AM 57.2 °F 53.6 °F 88% 29.92 in 10.0 mi ESE 17.3 mph - N/A   Scattered Clouds
4:52 AM 59.0 °F 53.1 °F 81% 29.87 in 10.0 mi ESE 17.3 mph - N/A   Clear
5:52 AM 59.0 °F 54.0 °F 83% 29.83 in 10.0 mi SE 17.3 mph 24.2 mph N/A   Clear
6:52 AM 59.0 °F 54.0 °F 83% 29.85 in 10.0 mi SE 20.7 mph 27.6 mph N/A   Clear
7:52 AM 59.0 °F 55.0 °F 87% 29.91 in 10.0 mi SE 10.4 mph - N/A   Partly Cloudy
8:52 AM 60.1 °F 54.0 °F 80% 29.82 in 10.0 mi ESE 18.4 mph 27.6 mph 0.00 in   Clear
9:52 AM 61.0 °F 55.0 °F 81% 29.90 in 10.0 mi WSW 4.6 mph - N/A   Partly Cloudy
10:52 AM 64.9 °F 55.9 °F 73% 29.89 in 10.0 mi SSE 10.4 mph 19.6 mph N/A   Clear
11:52 AM 69.1 °F 57.0 °F 65% 29.88 in 10.0 mi South 12.7 mph - N/A   Clear
12:52 PM 72.0 °F 57.9 °F 61% 29.87 in 10.0 mi South 15.0 mph - N/A   Clear
1:52 PM 75.0 °F 57.9 °F 55% 29.85 in 10.0 mi SSE 16.1 mph - N/A   Clear
2:52 PM 75.9 °F 59.0 °F 56% 29.84 in 10.0 mi South 13.8 mph - N/A   Clear
3:52 PM 77.0 °F 59.0 °F 54% 29.83 in 10.0 mi South 15.0 mph 27.6 mph N/A   Clear
4:52 PM 75.9 °F 59.0 °F 56% 29.82 in 10.0 mi South 8.1 mph - N/A   Scattered Clouds
5:52 PM 77.0 °F 60.1 °F 56% 29.80 in 10.0 mi SSE 8.1 mph - N/A   Mostly Cloudy
6:52 PM 75.0 °F 61.0 °F 62% 29.77 in 10.0 mi East 5.8 mph - N/A   Partly Cloudy
7:52 PM 72.0 °F 63.0 °F 73% 29.77 in 10.0 mi ESE 4.6 mph - 0.00 in Rain Light Rain
7:59 PM 71.6 °F 62.6 °F 73% 29.82 in 9.0 mi East 6.9 mph - 0.00 in Rain , Thunderstorm Light Thunderstorms and Rain
8:52 PM 63.0 °F 54.0 °F 72% 29.81 in 9.0 mi SSE 15.0 mph - 0.01 in Rain , Thunderstorm Light Thunderstorms and Rain
8:59 PM 62.6 °F 53.6 °F 72% 29.82 in 10.0 mi ENE 15.0 mph 21.9 mph 0.00 in Rain , Thunderstorm Light Thunderstorms and Rain
9:52 PM 63.0 °F 54.0 °F 72% 29.81 in 10.0 mi SSE 8.1 mph - 0.00 in Thunderstorm Thunderstorm
9:59 PM 62.6 °F 51.8 °F 68% 29.85 in 10.0 mi SE 8.1 mph - N/A   Partly Cloudy
10:52 PM 62.1 °F 51.1 °F 67% 29.90 in 10.0 mi NW 29.9 mph 40.3 mph 0.00 in Rain Light Rain
11:52 PM 60.1 °F 53.1 °F 78% 29.92 in 10.0 mi NW 9.2 mph - 0.00 in Rain Light Rain